Flag Weather past 2 weeks in New Orleans, Louisiana, U.S.A.

Now
63 °F

Sunny.


Feels Like: 63 °F
Forecast: 55 / 69 °F
Wind: 10 mph from Northwest

Location: Lakefront Airport

Current Time: Nov 24, 2014 at 12:19:43 PM

Latest Report: Nov 24, 2014 at 11:53 AM


Visibility: 7 mi

Pressure: 29.87 "Hg

Humidity: 75%

Dew point: 55 °F

Location of New OrleansLocation

Historic Weather in New Orleans — Graph

°F

New Orleans temperature yesterday

Maximum temperature yesterday: 74 °F (at 2:53 PM)
Minimum temperature yesterday: 61 °F (at 4:53 AM)
Average temperature yesterday: 67 °F

Past Weeks' High & Low Weather Summary

 TemperatureHumidityPressure
High79 °F (Nov 16, 1:00 PM)94% (Nov 23, 7:00 AM)30.50 "Hg (Nov 23, 7:00 AM)
Low36 °F (Nov 19, 5:53 AM)28% (Nov 14, 1:53 PM)29.62 "Hg (Nov 23, 2:53 PM)
Average56 °F68%30.12 "Hg
* Reported Nov 9 10:53 AM — Nov 24 10:53 AM, New Orleans, Weather by CustomWeather, © 2014

Note: Actual official high and low records may vary slightly from our data, if they occured in-between our weather recording intervals... More about our weather records

Advertising

New Orleans weather history for previous 24 hours

 ConditionsComfort  
Time TempWeatherWind HumidityBarometerVisibility
10:53 AM
Nov 24
64 °FSunny.13 mph78%29.88 "Hg10 mi
9:53 AM62 °FFog.12 mph90%29.88 "Hg5 mi
8:53 AM62 °FFog.10 mph93%29.86 "Hg6 mi
7:53 AM61 °FFog.12 mph93%29.83 "Hg6 mi
7:02 AM62 °FFog.10 mph93%29.83 "Hg1 mi
6:53 AM62 °FFog.12 mph93%29.80 "Hg0 mi
5:53 AM65 °FFog.12 mph94%29.79 "Hg2 mi
5:01 AM66 °FFog.13 mph93%29.78 "Hg1 mi
4:01 AM68 °FFog.13 mph90%29.77 "Hg2 mi
2:53 AM68 °FFog.15 mph93%29.73 "Hg3 mi
1:53 AM68 °FFog.15 mph93%29.73 "Hg4 mi
12:53 AM68 °FFog.14 mph90%29.72 "Hg6 mi
11:53 PM
Nov 23
68 °FFog.10 mph90%29.72 "Hg6 mi
10:53 PM69 °FClear.13 mph87%29.73 "Hg7 mi
9:53 PM68 °FFog.13 mph90%29.72 "Hg6 mi
8:53 PM69 °FPassing clouds.13 mph87%29.72 "Hg8 mi
7:53 PM69 °FPassing clouds.13 mph87%29.69 "Hg8 mi
6:53 PM68 °FPassing clouds.12 mph84%29.66 "Hg10 mi
5:53 PM69 °FClear.12 mph73%29.67 "Hg10 mi
4:53 PM71 °FSunny.12 mph63%29.64 "Hg10 mi
3:53 PM73 °FSunny.21 mph57%29.63 "Hg10 mi
2:53 PM74 °FPassing clouds.15 mph60%29.62 "Hg10 mi
1:53 PM73 °FScattered clouds.23 mph62%29.63 "Hg10 mi
12:53 PM72 °FScattered clouds.16 mph68%29.64 "Hg10 mi
Weather by CustomWeather, © 2014

See weather overviewHow to use our weather pages